Погода в Сиене

Италия     43°19′06″N   11°19′53″E
темп.,
°C
ветер,
м/с
пор.,
м/с
влажн.,
%
обл.,
%
осадки,
мм/ч
давл.,
гПа
погр.,
м
12 мая, ср
ср1223:00+9ю11975 0.2 101210
02:00+9ююз01946 0.3 101110
05:00+8ююв11945 0.0 101010
08:00+12юв11865 0.0 1010125
11:00+17юз366637 0.4 10101159
14:00+16з895811 0.9 10111363
17:00+15зсз711522 0.0 10101176
20:00+12зсз513695 0.0 1011650
13 мая, чт
чт1323:00+7ююв1192100 0.0 101111
02:00+9вюв1181100 0.0 101011
05:00+7ююв118510 0.0 100910
08:00+11юв116997 0.0 1008154
11:00+17ююз355095 0.0 10071573
14:00+19з694014 0.0 10062476
17:00+16зсз456419 0.5 1006767
20:00+11зсз487636 0.8 1008276
14 мая, пт
пт1423:00+8в118787 0.0 100910
02:00+6ю119129 0.0 101012
05:00+7ю228999 0.0 101015
08:00+12юз4107638 0.1 1010910
11:00+17зюз584778 0.1 10102057
14:00+19ююз464434 0.1 10101875
17:00+16ююз786462 0.2 10091181
20:00+11ю3696100 1.3 1010298
15 мая, сб
сб1523:00+10вюв3799100 25.3 1010491
02:00+10ссв1299100 40.1 100989
05:00+10ссв2497100 4.3 1010202
08:00+10сз2394100 4.4 1012166
11:00+12ссз128425 0.0 1013307
14:00+18сз3458100 0.2 10121527
17:00+17зсз5659100 0.1 10121236
20:00+12з51083100 0.1 1014626
16 мая, вс
вс1623:00+8зсз0191100 0.0 101410
02:00+10ююв1184100 0.0 101348
05:00+11юв1279100 0.0 101257
08:00+11юв1180100 0.1 101246
11:00+12ююв1373100 0.0 1013223
14:00+14ю1380100 0.0 1013483
17:00+17з587568 0.2 10121134
20:00+15з49864 0.3 1012587